349P/Lemmon (2017)

Japanese version
Home page
Updated on April 1, 2017

---------------------------------------------------------------------

* Profile

Designation 349P/2017 B1
Recovery Date January 26, 2017
Magnitude 21.0 mag
Recoverer Pan-STARRS 1 telescope (Haleakala)

* Pictures

* Orbital Elements

Epoch 2017 Sept. 4.0 TT = JDT 2458000.5
T 2017 Aug. 26.73606 TT                                 MPCW
q   2.4985654            (2000.0)            P               Q
n   0.14596986     Peri.  255.97792     -0.67012708     +0.74086549
a   3.5724041      Node   331.78243     -0.63870926     -0.60663774
e   0.3005927      Incl.    5.49236     -0.37812721     -0.28828628
P   6.75
From 41 observations 2010 Mar. 14-2017 Jan. 27, mean residual 0".5.

* Magnitudes Graph

        m1 = 14.0 + 5 log d + 10.0 log r

---------------------------------------------------------------------

The orbital elements are published on M.P.E.C. 2017-B82.
The magnitudes graphs are made with Comet for Windows.

---------------------------------------------------------------------

Copyright(C) Seiichi Yoshida (comet@aerith.net). All rights reserved.